EW9120 Weather Reports


Display with metric or nautical units.
time (UTC)temp
F
wind
direction
speed
MPH
gust
MPH
rain 1hr
in
rain 24hr
in
rain mn
in
humidity
%
barometer
mb
20181120151008 39 275 0.0 1.0 0.00 0.00 0.00 76 945.3
20181120150511 38 295 1.0 6.0 0.00 0.00 0.00 76 945.3
20181120150008 38 11 3.0 6.0 0.00 0.00 0.00 76 945.1
20181120145510 38 44 1.0 3.0 0.00 0.00 0.00 76 945.3
20181120145008 38 151 1.0 2.0 0.00 0.00 0.00 77 945.4
20181120144510 38 187 0.0 3.0 0.00 0.00 0.00 77 945.3
20181120144008 38 182 1.0 3.0 0.00 0.00 0.00 77 945.2
20181120143512 38 83 1.0 3.0 0.00 0.00 0.00 77 945.3
20181120143008 38 97 0.0 3.0 0.00 0.00 0.00 77 945.4
20181120142510 38 128 1.0 2.0 0.00 0.00 0.00 77 945.4
20181120142008 38 258 0.0 2.0 0.00 0.00 0.00 77 945.3
20181120141510 38 32 1.0 3.0 0.00 0.00 0.00 77 945.6
20181120141009 38 3 1.0 3.0 0.00 0.00 0.00 77 945.6
20181120140511 38 270 1.0 7.0 0.00 0.00 0.00 76 945.5
20181120140008 38 31 1.0 7.0 0.00 0.00 0.00 76 945.5
20181120135510 38 338 2.0 3.0 0.00 0.00 0.00 76 945.6
20181120135008 38 324 0.0 2.0 0.00 0.00 0.00 76 945.7
20181120134510 39 275 0.0 3.0 0.00 0.00 0.00 76 945.6
20181120134008 39 233 0.0 3.0 0.00 0.00 0.00 76 945.7
20181120133511 39 285 0.0 2.0 0.00 0.00 0.00 76 945.8
20181120133008 38 295 1.0 6.0 0.00 0.00 0.00 76 945.9
20181120132510 39 28 2.0 6.0 0.00 0.00 0.00 76 945.9
20181120132008 38 60 3.0 8.0 0.00 0.00 0.00 76 945.9
20181120131510 38 10 3.0 7.0 0.00 0.00 0.00 76 945.9
20181120131008 38 277 2.0 5.0 0.00 0.00 0.00 76 946.0
20181120130510 38 256 2.0 5.0 0.00 0.00 0.00 76 946.1
20181120130008 38 307 1.0 3.0 0.00 0.00 0.00 75 946.3
20181120125510 38 150 2.0 8.0 0.00 0.00 0.00 75 946.3
20181120125008 38 295 3.0 7.0 0.00 0.00 0.00 75 946.2
20181120124510 38 96 3.0 7.0 0.00 0.00 0.00 74 946.3
20181120124009 38 130 3.0 8.0 0.00 0.00 0.00 75 946.2
20181120123511 38 340 3.0 8.0 0.00 0.00 0.00 75 946.3
20181120123008 39 343 2.0 6.0 0.00 0.00 0.00 75 946.3
20181120122510 39 252 2.0 7.0 0.00 0.00 0.00 75 946.2
20181120122009 39 330 2.0 6.0 0.00 0.00 0.00 76 946.2
20181120121510 39 270 2.0 8.0 0.00 0.00 0.00 75 946.2
20181120121009 39 280 3.0 7.0 0.00 0.00 0.00 75 946.0
20181120120511 39 279 3.0 10.0 0.00 0.00 0.00 74 946.0
20181120120008 39 270 4.0 10.0 0.00 0.00 0.00 72 946.0
20181120115510 40 270 3.0 6.0 0.00 0.00 0.00 72 946.1
20181120115009 40 270 2.0 5.0 0.00 0.00 0.00 72 945.9
20181120114510 40 221 2.0 5.0 0.00 0.00 0.00 72 946.0
20181120114008 40 282 1.0 3.0 0.00 0.00 0.00 71 946.2
20181120113511 40 121 2.0 3.0 0.00 0.00 0.00 72 945.8
20181120113010 40 19 1.0 3.0 0.00 0.00 0.00 72 945.9
20181120112510 40 271 0.0 3.0 0.00 0.00 0.00 73 945.9
20181120112009 40 264 1.0 3.0 0.00 0.00 0.00 72 945.9
20181120111510 40 276 2.0 5.0 0.00 0.00 0.00 72 945.9
20181120111009 40 185 2.0 3.0 0.00 0.00 0.00 72 946.0
20181120110510 40 279 2.0 5.0 0.00 0.00 0.00 71 946.1
20181120110007 40 277 2.0 5.0 0.00 0.00 0.00 71 946.3
20181120105510 39 302 2.0 5.0 0.00 0.00 0.00 71 946.2
20181120105008 39 264 2.0 7.0 0.00 0.00 0.00 71 946.4
20181120104510 39 270 3.0 7.0 0.00 0.01 0.00 71 946.3
20181120104008 39 278 2.0 6.0 0.00 0.01 0.00 71 946.4
20181120103511 39 248 3.0 6.0 0.00 0.01 0.00 72 946.5
20181120103009 39 245 2.0 6.0 0.00 0.01 0.00 72 946.5
20181120102511 39 272 3.0 8.0 0.00 0.02 0.00 71 946.5
20181120102008 39 80 1.0 9.0 0.00 0.02 0.00 70 946.6
20181120101510 39 10 3.0 8.0 0.00 0.04 0.00 69 946.7
20181120101008 39 268 4.0 8.0 0.00 0.04 0.00 68 946.7
20181120100511 40 270 3.0 8.0 0.00 0.05 0.00 67 946.7
20181120100008 40 272 3.0 10.0 0.00 0.05 0.00 67 946.8
20181120095510 40 291 2.0 6.0 0.00 0.06 0.00 67 946.8
20181120095008 40 275 2.0 5.0 0.00 0.07 0.00 67 946.8
20181120094510 40 260 2.0 6.0 0.00 0.08 0.00 67 946.8
20181120094008 40 270 3.0 6.0 0.00 0.08 0.00 67 946.8
20181120093511 40 288 4.0 6.0 0.00 0.09 0.00 67 946.8
20181120093008 41 270 2.0 3.0 0.00 0.11 0.00 68 946.9
20181120092510 41 270 1.0 3.0 0.00 0.11 0.00 69 947.0
20181120092009 40 280 0.0 2.0 0.00 0.11 0.00 69 947.0
20181120091509 40 284 0.0 2.0 0.00 0.11 0.00 69 947.0
20181120091008 40 330 1.0 6.0 0.00 0.11 0.00 68 947.0
20181120090511 40 307 3.0 7.0 0.00 0.11 0.00 70 946.9
20181120090008 40 322 3.0 8.0 0.00 0.11 0.00 72 946.8
20181120085510 40 294 2.0 5.0 0.00 0.11 0.00 73 946.8
20181120085009 39 247 0.0 1.0 0.00 0.11 0.00 74 946.9
20181120084510 39 122 0.0 1.0 0.00 0.11 0.00 74 946.9
20181120084016 39 18 0.0 1.0 0.00 0.11 0.00 75 947.0
20181120083511 39 270 0.0 1.0 0.00 0.11 0.00 76 946.9
20181120083008 39 270 1.0 2.0 0.00 0.11 0.00 77 947.0
20181120082510 39 225 0.0 0.0 0.00 0.11 0.00 77 946.9
20181120082009 38 246 0.0 3.0 0.00 0.11 0.00 77 947.1
20181120081510 38 19 0.0 2.0 0.00 0.11 0.00 77 947.0
20181120081009 38 5 1.0 5.0 0.00 0.11 0.00 76 946.8
20181120080511 38 45 2.0 5.0 0.00 0.11 0.00 77 946.8
20181120080008 38 270 0.0 3.0 0.00 0.11 0.00 76 946.9
20181120075510 38 6 1.0 3.0 0.00 0.11 0.00 76 946.9
20181120075008 38 270 0.0 3.0 0.00 0.11 0.00 75 946.7
20181120074509 38 179 1.0 3.0 0.00 0.11 0.00 75 946.9
20181120074008 38 270 3.0 6.0 0.00 0.11 0.00 76 946.9
20181120073509 38 270 3.0 8.0 0.00 0.11 0.00 76 946.7
20181120073008 38 270 2.0 5.0 0.00 0.11 0.00 77 946.7
20181120072511 37 260 3.0 6.0 0.00 0.11 0.00 73 946.7
20181120072008 37 270 2.0 5.0 0.00 0.11 0.00 73 946.7
20181120071510 37 270 2.0 5.0 0.00 0.11 0.00 74 946.8
20181120071009 37 292 2.0 6.0 0.00 0.11 0.00 74 946.9
20181120070511 37 258 2.0 7.0 0.00 0.11 0.00 76 946.7
20181120070008 37 278 3.0 8.0 0.00 0.11 0.00 79 946.8
20181120065510 36 301 5.0 8.0 0.00 0.11 0.00 80 946.6
20181120065008 36 270 0.0 3.0 0.00 0.11 0.00 81 946.6
20181120064510 35 270 0.0 3.0 0.00 0.11 0.00 82 946.5
20181120064008 35 270 1.0 5.0 0.00 0.11 0.00 83 946.5
20181120063511 34 269 2.0 5.0 0.00 0.11 0.00 84 946.5
20181120063008 34 270 2.0 5.0 0.00 0.11 0.00 84 946.5
20181120062510 34 270 1.0 3.0 0.00 0.11 0.00 85 946.3
20181120062008 34 270 0.0 2.0 0.00 0.11 0.00 86 946.3
20181120061509 34 299 0.0 2.0 0.00 0.11 0.00 87 946.1
20181120061007 34 315 0.0 2.0 0.00 0.11 0.00 87 946.2
20181120060511 33 3 0.0 2.0 0.00 0.11 0.00 88 946.1
20181120060008 33 355 1.0 3.0 0.00 0.11 0.00 88 946.1
20181120055512 33 1 2.0 3.0 0.00 0.11 0.00 89 945.9
20181120055008 33 22 1.0 3.0 0.00 0.11 0.00 89 946.1
20181120054510 33 0 1.0 3.0 0.00 0.11 0.00 90 946.1
20181120054008 32 349 2.0 3.0 0.00 0.11 0.00 90 946.1
20181120053510 33 0 1.0 3.0 0.00 0.11 0.00 90 946.1
20181120053008 33 158 0.0 2.0 0.00 0.11 0.00 90 945.9
20181120052510 33 255 0.0 3.0 0.00 0.11 0.00 90 946.0
20181120052008 33 75 1.0 3.0 0.00 0.11 0.00 90 945.9
20181120051509 32 307 0.0 3.0 0.00 0.11 0.00 91 946.1
20181120051008 32 7 2.0 3.0 0.00 0.11 0.00 91 946.0
20181120050510 32 270 0.0 2.0 0.00 0.11 0.00 91 946.1
20181120050008 32 309 0.0 3.0 0.00 0.11 0.00 92 945.9
20181120045509 32 271 0.0 3.0 0.00 0.11 0.00 92 946.0
20181120045008 31 270 1.0 2.0 0.00 0.11 0.00 91 945.9
20181120044510 31 270 0.0 2.0 0.00 0.11 0.00 91 945.9
20181120044008 31 270 1.0 2.0 0.00 0.11 0.00 91 946.1
20181120043510 31 302 0.0 3.0 0.00 0.11 0.00 91 946.1
20181120043007 31 45 2.0 5.0 0.00 0.11 0.00 91 946.1
20181120042510 31 352 2.0 3.0 0.00 0.11 0.00 91 945.9
20181120042008 31 287 0.0 2.0 0.00 0.11 0.00 91 946.1
20181120041510 31 314 0.0 3.0 0.00 0.11 0.00 91 946.0
20181120041008 31 7 2.0 3.0 0.00 0.11 0.00 91 946.3
20181120040510 31 315 0.0 3.0 0.00 0.11 0.00 91 946.2
20181120040008 31 262 0.0 1.0 0.00 0.11 0.00 91 946.1
20181120035510 31 270 0.0 1.0 0.00 0.11 0.00 91 946.0
20181120035008 31 270 0.0 2.0 0.00 0.11 0.00 91 946.0
20181120034510 31 270 1.0 2.0 0.00 0.11 0.00 91 945.9
20181120034008 31 270 1.0 3.0 0.00 0.11 0.00 91 945.9
20181120033511 31 270 1.0 2.0 0.00 0.11 0.00 91 945.9
20181120033008 31 90 1.0 3.0 0.00 0.11 0.00 91 945.7
20181120032509 31 286 2.0 3.0 0.00 0.11 0.00 90 945.7
20181120032008 31 270 1.0 6.0 0.00 0.11 0.00 90 945.6
20181120031510 31 270 3.0 6.0 0.00 0.11 0.00 90 945.6
20181120031007 30 270 0.0 1.0 0.00 0.11 0.00 90 945.4
20181120030510 31 293 0.0 1.0 0.00 0.11 0.00 89 945.2
20181120030007 31 355 1.0 3.0 0.00 0.11 0.00 89 945.4
20181120025510 30 70 1.0 3.0 0.00 0.11 0.00 89 945.7
20181120025008 31 338 2.0 3.0 0.00 0.11 0.00 89 945.9
20181120024510 31 330 0.0 1.0 0.00 0.11 0.00 89 945.9
20181120024008 31 270 0.0 1.0 0.00 0.11 0.00 89 946.0
20181120023511 31 209 0.0 2.0 0.00 0.11 0.00 89 946.0
20181120023008 31 192 1.0 2.0 0.00 0.11 0.00 89 946.0
20181120022509 31 202 0.0 1.0 0.00 0.11 0.00 89 945.9
20181120022008 31 202 0.0 1.0 0.00 0.11 0.00 89 945.9
20181120021510 31 202 0.0 1.0 0.00 0.11 0.00 89 945.9
20181120021008 32 180 0.0 2.0 0.00 0.11 0.00 90 945.8
20181120020510 32 225 0.0 1.0 0.00 0.11 0.00 89 945.8
20181120020008 32 146 0.0 1.0 0.00 0.11 0.00 89 945.7
20181120015510 32 270 0.0 0.0 0.00 0.11 0.00 89 945.8
20181120015008 31 270 0.0 1.0 0.00 0.11 0.00 89 945.9
20181120014510 32 270 0.0 3.0 0.00 0.11 0.00 89 945.9
20181120014008 32 348 0.0 3.0 0.00 0.11 0.00 89 946.0
20181120013511 32 0 2.0 5.0 0.00 0.11 0.00 88 945.9
20181120013008 32 5 2.0 3.0 0.00 0.11 0.00 88 945.9
20181120012509 32 347 0.0 2.0 0.00 0.11 0.00 88 945.8
20181120012008 32 22 1.0 3.0 0.00 0.11 0.00 88 946.0
20181120011510 32 348 1.0 3.0 0.00 0.11 0.00 89 945.9
20181120011008 32 0 1.0 1.0 0.00 0.11 0.00 88 946.1
20181120010511 32 180 0.0 2.0 0.00 0.11 0.00 87 946.1
20181120010007 32 36 1.0 2.0 0.00 0.11 0.00 87 945.9
20181120005510 32 0 1.0 1.0 0.00 0.11 0.00 87 946.0
20181120005008 32 270 0.0 1.0 0.00 0.11 0.00 87 946.0
20181120004510 32 281 0.0 1.0 0.00 0.11 0.00 86 945.9
20181120004008 32 270 0.0 0.0 0.00 0.11 0.00 86 945.5
20181120003511 32 270 0.0 0.0 0.00 0.11 0.00 85 945.5
20181120003008 32 270 0.0 1.0 0.00 0.11 0.00 84 945.5
20181120002510 32 180 1.0 1.0 0.00 0.11 0.00 84 945.6
20181120002008 33 233 0.0 1.0 0.00 0.11 0.00 84 945.2
20181120001509 33 270 0.0 1.0 0.00 0.11 0.00 84 945.1
20181120001008 33 0 0.0 1.0 0.00 0.11 0.00 84 945.3
20181120000513 33 244 0.0 0.0 0.00 0.11 0.00 83 945.3
20181120000007 33 264 0.0 0.0 0.00 0.11 0.00 83 945.3
20181119235509 33 255 0.0 0.0 0.00 0.11 0.00 83 945.4
20181119235008 33 217 0.0 1.0 0.00 0.11 0.00 83 945.5
20181119234510 34 48 0.0 1.0 0.00 0.11 0.00 82 945.4
20181119234008 34 188 0.0 1.0 0.00 0.11 0.00 81 945.6
20181119233510 34 90 0.0 1.0 0.00 0.11 0.00 81 945.6
20181119233008 34 180 0.0 1.0 0.00 0.11 0.00 81 945.6
20181119232510 35 270 0.0 1.0 0.00 0.11 0.00 81 945.6
20181119232007 35 225 0.0 3.0 0.00 0.11 0.00 81 945.6
20181119231509 35 270 2.0 3.0 0.00 0.11 0.00 81 945.7
20181119231008 35 135 0.0 0.0 0.00 0.11 0.00 81 945.7
20181119230510 35 135 0.0 1.0 0.00 0.11 0.00 81 945.9
20181119230008 35 2 0.0 1.0 0.00 0.11 0.00 81 945.8
20181119225510 35 226 0.0 3.0 0.00 0.11 0.00 81 945.8
20181119225009 36 71 2.0 3.0 0.00 0.11 0.00 80 945.7
20181119224510 36 27 1.0 3.0 0.00 0.11 0.00 80 945.7
20181119224008 36 22 2.0 3.0 0.00 0.11 0.00 80 945.8
20181119223511 36 0 1.0 3.0 0.00 0.11 0.00 80 946.1
20181119223007 36 356 1.0 3.0 0.00 0.11 0.00 81 945.9
20181119222510 36 270 0.0 2.0 0.00 0.11 0.00 81 946.0
20181119222008 36 259 0.0 1.0 0.00 0.11 0.00 81 945.9
20181119221510 36 262 0.0 1.0 0.00 0.11 0.00 81 945.9
20181119221008 36 292 0.0 0.0 0.00 0.11 0.00 81 945.8
20181119220510 36 292 0.0 0.0 0.00 0.11 0.00 81 945.7
20181119220008 36 292 0.0 1.0 0.00 0.11 0.00 81 945.8
20181119215509 36 278 0.0 1.0 0.00 0.11 0.11 81 945.6
20181119215008 36 270 0.0 1.0 0.00 0.11 0.11 82 945.5
20181119214510 36 270 0.0 1.0 0.00 0.11 0.11 82 945.6
20181119214011 36 270 0.0 1.0 0.00 0.11 0.11 82 945.5
20181119213511 36 270 0.0 0.0 0.00 0.11 0.11 82 945.3
20181119213008 36 270 0.0 0.0 0.00 0.11 0.11 82 945.1
20181119212509 35 270 0.0 0.0 0.00 0.11 0.11 83 945.2
20181119212008 35 278 0.0 0.0 0.00 0.11 0.11 83 945.4
20181119211510 35 270 0.0 1.0 0.00 0.11 0.11 83 945.2
20181119211008 36 270 1.0 3.0 0.00 0.11 0.11 82 945.1
20181119210510 35 279 1.0 3.0 0.00 0.11 0.11 83 945.4
20181119210007 35 292 1.0 3.0 0.00 0.11 0.11 83 945.3
20181119205510 35 270 1.0 3.0 0.00 0.11 0.11 83 945.1
20181119205008 35 270 1.0 3.0 0.00 0.11 0.11 83 945.2
20181119204510 35 270 0.0 2.0 0.00 0.11 0.11 83 945.3
20181119204007 36 278 1.0 2.0 0.00 0.11 0.11 82 945.4
20181119203510 36 270 1.0 2.0 0.00 0.11 0.11 82 945.3
20181119203008 36 270 1.0 3.0 0.00 0.11 0.11 82 945.2
20181119202509 36 270 1.0 3.0 0.00 0.11 0.11 82 945.3
20181119202008 36 270 0.0 1.0 0.00 0.11 0.11 82 945.3
20181119201510 36 270 0.0 2.0 0.00 0.11 0.11 82 945.5
20181119201008 36 270 0.0 1.0 0.00 0.11 0.11 82 945.3
20181119200510 35 253 0.0 2.0 0.00 0.11 0.11 82 945.2
20181119200008 36 214 0.0 2.0 0.00 0.11 0.11 82 945.3
20181119195510 35 225 0.0 1.0 0.00 0.11 0.11 82 945.3
20181119195007 35 225 0.0 1.0 0.00 0.11 0.11 82 945.3
20181119194512 35 213 0.0 1.0 0.00 0.11 0.11 82 945.1
20181119194008 36 270 0.0 3.0 0.00 0.11 0.11 82 945.2
20181119193511 36 270 1.0 3.0 0.00 0.11 0.11 82 945.2
20181119193008 36 300 0.0 2.0 0.00 0.11 0.11 82 945.3
20181119192509 36 270 1.0 2.0 0.00 0.11 0.11 82 945.2
20181119192007 36 270 0.0 2.0 0.00 0.11 0.11 82 945.0
20181119191509 36 247 1.0 2.0 0.00 0.11 0.11 82 945.1
20181119191008 36 297 0.0 1.0 0.00 0.11 0.11 82 945.0
20181119190510 36 190 0.0 2.0 0.00 0.11 0.11 82 944.9
20181119190008 36 62 1.0 2.0 0.00 0.11 0.11 83 944.9
20181119185510 36 298 0.0 1.0 0.00 0.11 0.11 83 944.8
20181119185007 36 21 0.0 1.0 0.00 0.11 0.11 83 944.7
20181119184509 36 353 1.0 2.0 0.00 0.11 0.11 82 944.8
20181119184007 36 160 0.0 2.0 0.00 0.11 0.11 82 944.7
20181119183510 36 201 1.0 2.0 0.00 0.11 0.11 83 944.6
20181119183008 36 315 0.0 1.0 0.00 0.11 0.11 83 944.5
20181119182509 36 270 0.0 1.0 0.00 0.11 0.11 83 944.5
20181119182008 36 270 0.0 1.0 0.00 0.11 0.11 83 944.4
20181119181510 36 270 1.0 2.0 0.00 0.11 0.11 83 944.3
20181119181007 36 270 0.0 1.0 0.00 0.11 0.11 83 944.3
20181119180510 36 286 0.0 3.0 0.00 0.11 0.11 83 944.3
20181119180007 36 270 1.0 3.0 0.00 0.11 0.11 83 944.2
20181119175510 36 270 1.0 3.0 0.00 0.11 0.11 83 944.5
20181119175008 36 260 1.0 3.0 0.00 0.11 0.11 83 944.2
20181119174509 36 284 2.0 3.0 0.00 0.11 0.11 82 944.3
20181119174007 36 270 2.0 3.0 0.00 0.11 0.11 82 944.1
20181119173510 36 270 2.0 5.0 0.00 0.11 0.11 82 944.0
20181119173008 36 270 3.0 6.0 0.00 0.11 0.11 82 944.2
20181119172510 36 286 3.0 6.0 0.00 0.11 0.11 82 944.2
20181119172008 36 270 2.0 6.0 0.00 0.11 0.11 82 944.1
20181119171510 36 298 2.0 6.0 0.00 0.11 0.11 82 944.0
20181119171007 36 270 3.0 6.0 0.00 0.11 0.11 82 944.0
20181119170510 36 282 3.0 6.0 0.00 0.11 0.11 82 943.8
20181119170008 36 270 2.0 5.0 0.00 0.11 0.11 82 943.8
20181119165510 36 283 2.0 7.0 0.00 0.11 0.11 82 943.9
20181119165007 36 282 4.0 7.0 0.00 0.11 0.11 82 943.8
20181119164509 36 275 3.0 6.0 0.00 0.11 0.11 82 943.8
20181119164008 36 286 3.0 6.0 0.00 0.11 0.11 81 943.7
20181119163509 36 293 4.0 6.0 0.00 0.11 0.11 81 943.7
20181119163008 36 310 4.0 8.0 0.00 0.11 0.11 81 943.7
20181119162510 36 284 2.0 6.0 0.00 0.11 0.11 81 943.5
20181119162008 36 270 2.0 6.0 0.00 0.11 0.11 81 943.4
20181119161509 36 271 2.0 6.0 0.00 0.11 0.11 81 943.6
20181119161008 36 270 1.0 3.0 0.00 0.11 0.11 81 943.3
20181119160510 36 270 2.0 5.0 0.00 0.11 0.11 81 943.2
20181119160007 36 268 1.0 3.0 0.00 0.11 0.11 81 943.3
20181119155509 36 270 2.0 3.0 0.00 0.11 0.11 81 943.1
20181119155010 36 270 1.0 3.0 0.00 0.11 0.11 81 943.2
20181119154509 36 270 2.0 3.0 0.00 0.11 0.11 81 943.1
20181119154008 36 277 2.0 6.0 0.00 0.11 0.11 81 943.1
20181119153510 36 279 1.0 3.0 0.00 0.11 0.11 81 943.1
20181119153007 36 270 2.0 3.0 0.00 0.11 0.11 81 943.1
20181119152510 36 294 2.0 3.0 0.00 0.11 0.11 81 943.0
20181119152007 36 286 3.0 7.0 0.00 0.11 0.11 81 943.0
20181119151509 36 292 5.0 7.0 0.00 0.11 0.11 81 942.9